Weather History for Cairo, IL

Change the Weather History Date:

Friday, February 21, 2014

  Actual Average Record
Temperature  
Mean Temperature 48 °F -  
Max Temperature 55 °F 52 °F 71 °F (1983)
Min Temperature 40 °F 34 °F 8 °F (1963)
Degree Days  
Heating Degree Days 18    
Moisture  
Dew Point 27 °F    
Average Humidity 47    
Maximum Humidity 67    
Minimum Humidity 31    
Precipitation  
Precipitation 0.00 in - - ()
Sea Level Pressure  
Sea Level Pressure 29.98 in    
Wind  
Wind Speed 11 mph (SW)    
Max Wind Speed 17 mph    
Max Gust Speed 23 mph    
Visibility 10 miles    
Events      
Averages and records for this station are not official NWS values.
T = Trace of Precipitation, MM = Missing Value Source: NWS Daily Summary

Daily Weather History Graph

Daily Weather History Graph

Search for Another Location

Airport:

Trip Planner

Search our weather history database for the weather conditions in past years. The results will help you decide how hot, cold, wet, or windy it might be!

Date:

Astronomy

Feb. 21, 2014 Rise Set
Actual Time 6:38 AM CST 5:43 PM CST
Civil Twilight 6:12 AM CST 6:09 PM CST
Nautical Twilight 5:41 AM CST 6:39 PM CST
Astronomical Twilight 5:11 AM CST 7:09 PM CST
Moon No Moon Rise 10:11 AM CST (2/21)
Length of Visible Light 11h 57m
Length of Day
11h 04m
Waning Gibbous, 60% of the Moon is Illuminated
Feb 21
Waning Gibbous
Feb 22
Last Quarter
Mar 1
New
Mar 8
First Quarter
Mar 16
Full

Hourly Weather History & Observations

Time (CST) Temp. Windchill Dew Point Humidity Pressure Visibility Wind Dir Wind Speed Gust Speed Precip Events Conditions
12:15 AM 42.8 °F 38.0 °F 30.7 °F 62% 29.86 in 10.0 mi South 8.1 mph - N/A   Clear
12:35 AM 41.9 °F 36.3 °F 30.7 °F 65% 29.87 in 10.0 mi South 9.2 mph - N/A   Clear
12:55 AM 41.9 °F 36.3 °F 31.1 °F 66% 29.87 in 10.0 mi SSW 9.2 mph - N/A   Clear
1:15 AM 42.8 °F 36.6 °F 31.6 °F 65% 29.88 in 10.0 mi SSW 11.5 mph - N/A   Clear
1:35 AM 42.3 °F 36.3 °F 32.0 °F 67% 29.89 in 10.0 mi SSW 10.4 mph - N/A   Clear
1:55 AM 42.4 °F 36.1 °F 32.0 °F 67% 29.89 in 10.0 mi SSW 11.5 mph - N/A   Clear
2:15 AM 42.3 °F 35.5 °F 31.8 °F 67% 29.89 in 10.0 mi SSW 12.7 mph 19.6 mph N/A   Clear
2:35 AM 42.3 °F 35.5 °F 31.8 °F 67% 29.89 in 10.0 mi SW 12.7 mph 19.6 mph N/A   Clear
2:55 AM 42.4 °F 35.0 °F 31.6 °F 66% 29.89 in 10.0 mi SW 15.0 mph - N/A   Clear
3:15 AM 42.8 °F 36.6 °F 31.5 °F 64% 29.89 in 10.0 mi SW 11.5 mph 20.7 mph N/A   Clear
3:35 AM 42.4 °F 35.3 °F 31.1 °F 64% 29.90 in 10.0 mi SW 13.8 mph 19.6 mph N/A   Clear
3:55 AM 42.4 °F 35.0 °F 31.1 °F 64% 29.90 in 10.0 mi SW 15.0 mph 23.0 mph N/A   Clear
4:15 AM 41.9 °F 33.7 °F 30.6 °F 64% 29.90 in 10.0 mi SW 17.3 mph 21.9 mph N/A   Clear
4:35 AM 41.9 °F 35.4 °F 29.8 °F 62% 29.91 in 10.0 mi SW 11.5 mph 18.4 mph N/A   Clear
4:55 AM 41.9 °F 35.0 °F 29.1 °F 61% 29.92 in 10.0 mi WSW 12.7 mph 21.9 mph N/A   Clear
5:15 AM 42.1 °F 35.7 °F 27.5 °F 56% 29.92 in 10.0 mi SW 11.5 mph 20.7 mph N/A   Clear
5:35 AM 41.9 °F 35.0 °F 27.3 °F 56% 29.93 in 10.0 mi SW 12.7 mph 17.3 mph N/A   Clear
5:55 AM 41.5 °F 33.8 °F 26.4 °F 55% 29.95 in 10.0 mi WSW 15.0 mph 18.4 mph N/A   Clear
6:15 AM 41.0 °F 33.5 °F 25.0 °F 53% 29.95 in 10.0 mi WSW 13.8 mph 18.4 mph N/A   Clear
6:35 AM 40.3 °F 33.4 °F 24.3 °F 53% 29.95 in 10.0 mi WSW 11.5 mph - N/A   Clear
6:55 AM 40.1 °F 33.6 °F 23.0 °F 51% 29.96 in 10.0 mi WSW 10.4 mph - N/A   Clear
7:15 AM 40.5 °F 35.1 °F 23.0 °F 50% 29.97 in 10.0 mi WSW 8.1 mph - N/A   Clear
7:35 AM 41.4 °F 34.3 °F 23.2 °F 48% 29.99 in 10.0 mi WSW 12.7 mph - N/A   Clear
7:55 AM 42.3 °F 36.3 °F 22.1 °F 45% 30.00 in 10.0 mi SW 10.4 mph - N/A   Clear
8:15 AM 43.0 °F 38.2 °F 23.0 °F 45% 30.01 in 10.0 mi SW 8.1 mph - N/A   Clear
8:35 AM 43.5 °F 38.3 °F 23.9 °F 46% 30.01 in 10.0 mi WSW 9.2 mph - N/A   Clear
8:55 AM 45.1 °F 38.8 °F 22.1 °F 40% 30.02 in 10.0 mi West 13.8 mph 19.6 mph N/A   Clear
9:15 AM 45.7 °F 40.6 °F 23.9 °F 42% 30.03 in 10.0 mi SW 10.4 mph 18.4 mph N/A   Clear
9:35 AM 46.6 °F - 23.2 °F 40% 30.03 in 10.0 mi West 13.8 mph 18.4 mph N/A   Clear
9:55 AM 47.3 °F - 21.7 °F 36% 30.04 in 10.0 mi WSW 15.0 mph 19.6 mph N/A   Clear
10:15 AM 47.7 °F - 22.6 °F 37% 30.05 in 10.0 mi West 15.0 mph 18.4 mph N/A   Clear
10:35 AM 49.1 °F - 23.7 °F 37% 30.04 in 10.0 mi WSW 15.0 mph 18.4 mph N/A   Clear
10:55 AM 49.8 °F - 23.5 °F 36% 30.05 in 10.0 mi West 13.8 mph 19.6 mph N/A   Clear
11:15 AM 50.4 °F - 23.0 °F 34% 30.05 in 10.0 mi WSW 11.5 mph - N/A   Clear
11:35 AM 50.9 °F - 22.3 °F 33% 30.05 in 10.0 mi West 12.7 mph 16.1 mph N/A   Clear
11:55 AM 52.2 °F - 23.2 °F 32% 30.04 in 10.0 mi WSW 13.8 mph 18.4 mph N/A   Clear
12:15 PM 52.7 °F - 24.8 °F 34% 30.04 in 10.0 mi WSW 13.8 mph 19.6 mph N/A   Clear
12:35 PM 53.1 °F - 24.3 °F 33% 30.04 in 10.0 mi WSW 10.4 mph 18.4 mph N/A   Clear
12:55 PM 53.6 °F - 24.1 °F 32% 30.03 in 10.0 mi SW 13.8 mph 18.4 mph N/A   Clear
1:15 PM 53.6 °F - 24.3 °F 32% 30.02 in 10.0 mi SW 10.4 mph - N/A   Clear
1:35 PM 54.0 °F - 24.6 °F 32% 30.02 in 10.0 mi SW 12.7 mph 16.1 mph N/A   Clear
1:55 PM 54.3 °F - 24.8 °F 32% 30.01 in 10.0 mi SW 8.1 mph - N/A   Clear
2:15 PM 54.7 °F - 25.2 °F 32% 30.01 in 10.0 mi SSW 10.4 mph - N/A   Clear
2:35 PM 55.0 °F - 25.3 °F 32% 30.00 in 10.0 mi SSW 9.2 mph - N/A   Clear
2:55 PM 54.7 °F - 25.2 °F 32% 29.99 in 10.0 mi South 10.4 mph 18.4 mph N/A   Clear
3:15 PM 55.4 °F - 24.8 °F 31% 30.00 in 10.0 mi SSW 10.4 mph 17.3 mph N/A   Clear
3:35 PM 55.6 °F - 25.0 °F 31% 30.00 in 10.0 mi SSW 13.8 mph 19.6 mph N/A   Clear
3:55 PM 55.6 °F - 26.4 °F 33% 30.00 in 10.0 mi SSW 9.2 mph - N/A   Clear
4:15 PM 55.2 °F - 26.2 °F 33% 30.00 in 10.0 mi SSW 10.4 mph 19.6 mph N/A   Clear
4:35 PM 54.9 °F - 26.2 °F 33% 30.00 in 10.0 mi South 15.0 mph - N/A   Clear
4:55 PM 54.0 °F - 28.0 °F 37% 30.00 in 10.0 mi South 13.8 mph 18.4 mph N/A   Clear
5:15 PM 53.6 °F - 27.5 °F 37% 30.00 in 10.0 mi South 11.5 mph - N/A   Clear
5:35 PM 51.6 °F - 30.2 °F 44% 30.00 in 10.0 mi South 9.2 mph - N/A   Clear
5:55 PM 50.7 °F - 30.7 °F 46% 30.00 in 10.0 mi South 10.4 mph - N/A   Clear
6:15 PM 50.0 °F - 30.9 °F 48% 30.00 in 10.0 mi South 8.1 mph - N/A   Clear
6:35 PM 49.1 °F - 31.1 °F 50% 30.00 in 10.0 mi South 9.2 mph - N/A   Clear
6:55 PM 48.9 °F - 31.6 °F 51% 30.01 in 10.0 mi South 10.4 mph - N/A   Clear
7:15 PM 48.2 °F - 31.6 °F 53% 30.01 in 10.0 mi South 10.4 mph - N/A   Clear
7:35 PM 48.0 °F - 31.6 °F 53% 30.01 in 10.0 mi South 10.4 mph - N/A   Clear
7:55 PM 48.4 °F - 31.1 °F 51% 30.01 in 10.0 mi South 11.5 mph - N/A   Clear
8:15 PM 48.0 °F - 31.3 °F 52% 30.01 in 10.0 mi South 11.5 mph - N/A   Clear
8:35 PM 48.4 °F - 31.1 °F 51% 30.02 in 10.0 mi South 13.8 mph - N/A   Clear
8:55 PM 49.6 °F - 29.7 °F 46% 30.02 in 10.0 mi South 13.8 mph 19.6 mph N/A   Clear
9:15 PM 49.5 °F - 28.8 °F 45% 30.02 in 10.0 mi South 13.8 mph 18.4 mph N/A   Clear
9:35 PM 49.6 °F - 27.9 °F 43% 30.02 in 10.0 mi South 11.5 mph 21.9 mph N/A   Clear
9:55 PM 49.6 °F - 27.3 °F 42% 30.02 in 10.0 mi South 12.7 mph - N/A   Clear
10:15 PM 49.1 °F - 27.5 °F 43% 30.03 in 10.0 mi SSW 11.5 mph 17.3 mph N/A   Clear
10:35 PM 48.9 °F - 27.5 °F 43% 30.03 in 10.0 mi SSW 12.7 mph - N/A   Clear
10:55 PM 48.2 °F - 27.9 °F 45% 30.03 in 10.0 mi SSW 10.4 mph - N/A   Clear
11:15 PM 48.4 °F - 28.2 °F 46% 30.03 in 10.0 mi SSW 12.7 mph 18.4 mph N/A   Clear
11:35 PM 48.4 °F - 28.2 °F 46% 30.04 in 10.0 mi SSW 12.7 mph 19.6 mph N/A   Clear
11:55 PM 48.2 °F - 28.4 °F 46% 30.04 in 10.0 mi SSW 12.7 mph 18.4 mph N/A   Clear